WA2GTM Weather Reports


time (UTC)temp
F
wind
direction
speed
knots
gust
knots
rain 1hr
in
rain 24hr
in
rain mn
in
humidity
%
barometer
mb
20260504174053 78 292 13.0 24.3 0.00 0.00 0.00 31 1000.8
20260504173555 78 299 8.7 15.6 0.00 0.00 0.00 31 1000.8
20260504173120 78 281 9.6 22.6 0.00 0.00 0.00 31 1000.7
20260504172555 78 295 10.4 22.6 0.00 0.00 0.00 32 1000.7
20260504172101 78 291 7.8 18.2 0.00 0.00 0.00 32 1000.7
20260504171558 78 348 7.0 20.0 0.00 0.00 0.00 31 1000.5
20260504171056 78 298 8.7 20.0 0.00 0.00 0.00 31 1000.5
20260504170557 78 309 9.6 22.6 0.00 0.00 0.00 32 1000.5
20260504160105 77 286 6.1 15.6 0.00 0.00 0.00 33 1000.5
20260504151056 71 234 6.1 12.2 0.00 0.00 0.00 46 1001.0
20260504150559 71 265 6.1 12.2 0.00 0.00 0.00 46 1000.9
20260504141057 61 215 1.7 4.3 0.00 0.00 0.00 57 1001.4
20260504140557 61 0 1.7 4.3 0.00 0.00 0.00 57 1001.4
20260504140109 60 215 1.7 4.3 0.00 0.00 0.00 58 1001.6
20260504130559 53 0 0.9 2.6 0.00 0.00 0.00 67 1001.6
20260504110555 49 0 0.0 2.6 0.00 0.00 0.00 71 1001.8
20260504110118 49 0 0.0 2.6 0.00 0.00 0.00 71 1001.8
20260504100556 49 0 0.0 1.7 0.00 0.00 0.00 68 1002.4
20260504100103 49 0 0.0 2.6 0.00 0.00 0.00 68 1002.3
20260504090118 49 0 0.0 1.7 0.00 0.00 0.00 67 1003.1
20260504081558 50 230 0.9 3.5 0.00 0.00 0.00 67 1003.4
20260504081057 49 230 1.7 3.5 0.00 0.00 0.00 67 1003.7
20260504080556 49 230 0.0 3.5 0.00 0.00 0.00 67 1003.8
20260504060103 51 231 0.9 4.3 0.00 0.00 0.00 67 1005.6
20260504050557 54 0 0.0 0.9 0.00 0.00 0.00 59 1006.0
20260504045600 54 0 0.0 1.7 0.00 0.00 0.00 57 1006.2
20260504045057 54 230 0.9 1.7 0.00 0.00 0.00 55 1006.3
20260504044604 55 0 0.0 0.0 0.00 0.00 0.00 54 1006.3
20260504044057 55 0 0.0 0.0 0.00 0.00 0.00 53 1006.3
20260504043557 56 0 0.0 0.0 0.00 0.00 0.00 52 1006.3
20260504043057 56 0 0.0 0.0 0.00 0.00 0.00 52 1006.4
20260504042557 57 0 0.0 0.0 0.00 0.00 0.00 50 1006.5
20260504042056 57 0 0.0 0.0 0.00 0.00 0.00 50 1006.5
20260504041559 58 0 0.0 0.0 0.00 0.00 0.00 48 1006.5
20260504041056 58 0 0.0 0.9 0.00 0.00 0.00 46 1006.6
20260504040556 59 0 0.0 0.9 0.00 0.00 0.00 45 1006.5
20260504040106 59 0 0.0 0.9 0.00 0.00 0.00 44 1006.5
20260504035555 59 0 0.0 3.5 0.00 0.00 0.00 43 1006.6
20260504035056 59 0 0.0 3.5 0.00 0.00 0.00 43 1006.7
20260504034603 60 262 0.0 2.6 0.00 0.00 0.00 42 1006.7
20260504034057 60 0 0.0 2.6 0.00 0.00 0.00 41 1006.8
20260504033556 61 274 0.9 2.6 0.00 0.00 0.00 40 1006.9
20260504033114 61 274 0.9 2.6 0.00 0.00 0.00 40 1007.0
20260504032557 61 275 0.9 5.2 0.00 0.00 0.00 39 1007.2
20260504032056 62 275 0.9 5.2 0.00 0.00 0.00 38 1007.2
20260504031557 63 275 1.7 3.5 0.00 0.00 0.00 37 1007.3
20260504031055 63 280 0.9 3.5 0.00 0.00 0.00 36 1007.3
20260504030555 64 280 0.9 5.2 0.00 0.00 0.00 35 1007.3
20260504030056 64 280 1.7 5.2 0.00 0.00 0.00 35 1007.5
20260504025556 64 277 1.7 3.5 0.00 0.00 0.00 35 1007.4
20260504025056 64 288 1.7 3.5 0.00 0.00 0.00 35 1007.4
20260504024605 64 286 1.7 3.5 0.00 0.00 0.00 35 1007.5
20260504024056 65 288 1.7 5.2 0.00 0.00 0.00 35 1007.5
20260504023556 65 288 1.7 6.1 0.00 0.00 0.00 34 1007.5
20260504023056 65 283 1.7 6.1 0.00 0.00 0.00 34 1007.4
20260504022556 65 287 1.7 6.1 0.00 0.00 0.00 34 1007.4
20260504022056 65 285 2.6 6.1 0.00 0.00 0.00 33 1007.3
20260504021559 66 284 1.7 7.8 0.00 0.00 0.00 33 1007.4
20260504021056 66 282 3.5 7.8 0.00 0.00 0.00 32 1007.5
20260504020556 66 290 3.5 7.0 0.00 0.00 0.00 32 1007.4
20260504020100 67 274 2.6 7.8 0.00 0.00 0.00 32 1007.4
20260504015556 67 280 2.6 7.8 0.00 0.00 0.00 31 1007.5
20260504015058 67 275 3.5 7.8 0.00 0.00 0.00 30 1007.4
20260504014558 67 269 3.5 7.8 0.00 0.00 0.00 30 1007.1
20260504014058 67 267 3.5 7.8 0.00 0.00 0.00 31 1007.3
20260504013555 68 267 3.5 7.0 0.00 0.00 0.00 30 1007.3
20260504013057 68 269 4.3 7.0 0.00 0.00 0.00 30 1007.5
20260504012556 68 271 4.3 7.8 0.00 0.00 0.00 29 1007.4
20260504012056 69 280 4.3 7.8 0.00 0.00 0.00 29 1007.3
20260504011601 69 265 4.3 7.8 0.00 0.00 0.00 28 1007.4
20260504011056 70 275 4.3 7.8 0.00 0.00 0.00 27 1007.4
20260504010556 70 262 4.3 7.8 0.00 0.00 0.00 27 1007.4
20260504005556 71 256 2.6 7.8 0.00 0.00 0.00 26 1007.4
20260504005100 71 257 3.5 7.8 0.00 0.00 0.00 26 1007.4
20260504004556 72 287 4.3 7.8 0.00 0.00 0.00 26 1007.4
20260504004058 72 269 2.6 6.1 0.00 0.00 0.00 25 1007.5
20260504003557 73 269 2.6 6.1 0.00 0.00 0.00 25 1007.6
20260504003056 73 279 1.7 7.8 0.00 0.00 0.00 24 1007.5
20260504002556 73 282 2.6 7.8 0.00 0.00 0.00 24 1007.4
20260504002057 73 281 3.5 7.8 0.00 0.00 0.00 24 1007.5
20260504001614 74 334 1.7 7.0 0.00 0.00 0.00 25 1007.5
20260504001055 74 338 1.7 7.0 0.00 0.00 0.00 25 1007.4
20260504000555 74 315 3.5 6.1 0.00 0.00 0.00 25 1007.4
20260504000056 74 321 1.7 7.8 0.00 0.00 0.00 25 1007.6
20260503235555 74 320 3.5 8.7 0.00 0.00 0.00 25 1007.5
20260503235055 74 309 3.5 8.7 0.00 0.00 0.00 24 1007.7
20260503234557 74 306 2.6 8.7 0.00 0.00 0.00 24 1007.7
20260503234056 74 331 4.3 10.4 0.00 0.00 0.00 23 1007.7
20260503233557 74 5 3.5 10.4 0.00 0.00 0.00 24 1007.8
20260503233057 74 319 4.3 9.6 0.00 0.00 0.00 23 1007.7
20260503232600 75 306 3.5 9.6 0.00 0.00 0.00 23 1007.7
20260503232057 74 304 2.6 11.3 0.00 0.00 0.00 25 1007.8
20260503231558 74 269 4.3 11.3 0.00 0.00 0.00 24 1007.8
20260503231058 74 265 5.2 8.7 0.00 0.00 0.00 24 1007.7
20260503230558 74 279 3.5 9.6 0.00 0.00 0.00 24 1007.9
20260503230058 74 301 4.3 9.6 0.00 0.00 0.00 24 1007.8
20260503225556 74 304 6.1 10.4 0.00 0.00 0.00 24 1007.9
20260503225055 74 297 7.0 13.0 0.00 0.00 0.00 23 1007.8
20260503224557 74 305 7.0 13.0 0.00 0.00 0.00 23 1007.8
20260503224056 74 312 4.3 9.6 0.00 0.00 0.00 24 1007.9
20260503223557 74 271 4.3 9.6 0.00 0.00 0.00 24 1008.0
20260503223056 74 276 5.2 11.3 0.00 0.00 0.00 24 1008.1
20260503222559 74 15 6.1 11.3 0.00 0.00 0.00 24 1008.0
20260503222056 74 303 6.1 11.3 0.00 0.00 0.00 23 1008.1
20260503221556 75 300 4.3 7.8 0.00 0.00 0.00 23 1008.0
20260503221057 74 269 4.3 11.3 0.00 0.00 0.00 22 1008.1
20260503220554 74 284 5.2 11.3 0.00 0.00 0.00 22 1008.1
20260503220110 74 301 5.2 11.3 0.00 0.00 0.00 22 1008.2
20260503215555 74 284 3.5 11.3 0.00 0.00 0.00 23 1008.2
20260503215056 74 304 4.3 11.3 0.00 0.00 0.00 24 1008.2
20260503214554 74 298 4.3 12.2 0.00 0.00 0.00 24 1008.2
20260503214101 74 26 5.2 12.2 0.00 0.00 0.00 22 1008.3
20260503213601 74 304 3.5 11.3 0.00 0.00 0.00 23 1008.4
20260503213059 74 41 3.5 11.3 0.00 0.00 0.00 22 1008.4
20260503212558 74 27 4.3 13.9 0.00 0.00 0.00 22 1008.5
20260503212056 74 324 6.1 13.9 0.00 0.00 0.00 24 1008.5
20260503211607 74 284 5.2 13.9 0.00 0.00 0.00 23 1008.4
20260503211059 73 41 5.2 12.2 0.00 0.00 0.00 24 1008.4
20260503210557 74 31 5.2 12.2 0.00 0.00 0.00 24 1008.5
20260503210059 74 346 4.3 12.2 0.00 0.00 0.00 24 1008.5
20260503205556 74 325 5.2 11.3 0.00 0.00 0.00 24 1008.5
20260503205101 74 28 4.3 12.2 0.00 0.00 0.00 25 1008.5
20260503204606 74 22 2.6 12.2 0.00 0.00 0.00 25 1008.5
20260503204056 75 346 4.3 12.2 0.00 0.00 0.00 24 1008.6
20260503203556 75 352 5.2 13.9 0.00 0.00 0.00 25 1008.6
20260503203055 75 296 3.5 13.9 0.00 0.00 0.00 24 1008.6
20260503202558 75 22 7.8 13.9 0.00 0.00 0.00 23 1008.8
20260503202057 75 338 6.1 13.0 0.00 0.00 0.00 24 1008.6
20260503201557 75 28 3.5 13.0 0.00 0.00 0.00 26 1008.7
20260503201058 74 297 7.0 13.0 0.00 0.00 0.00 26 1008.7
20260503200557 74 332 4.3 14.8 0.00 0.00 0.00 25 1008.8
20260503200057 74 271 7.8 14.8 0.00 0.00 0.00 25 1008.8
20260503195555 74 315 7.0 13.9 0.00 0.00 0.00 25 1008.8
20260503195054 74 328 7.0 12.2 0.00 0.00 0.00 26 1008.8
20260503194559 74 319 3.5 14.8 0.00 0.00 0.00 26 1008.8
20260503194056 73 5 6.1 14.8 0.00 0.00 0.00 26 1008.9
20260503193558 73 337 7.8 14.8 0.00 0.00 0.00 27 1008.9
20260503193118 74 344 7.8 13.0 0.00 0.00 0.00 26 1008.9
20260503192556 74 282 7.0 14.8 0.00 0.00 0.00 26 1008.8
20260503192102 73 49 4.3 14.8 0.00 0.00 0.00 27 1008.8
20260503191601 73 345 7.0 14.8 0.00 0.00 0.00 27 1008.7
20260503191059 73 5 4.3 9.6 0.00 0.00 0.00 28 1008.7
20260503190556 73 299 4.3 10.4 0.00 0.00 0.00 29 1008.7
20260503190058 73 15 4.3 11.3 0.00 0.00 0.00 29 1008.9
20260503185556 72 355 4.3 13.0 0.00 0.00 0.00 29 1008.9
20260503185056 73 26 6.1 13.0 0.00 0.00 0.00 29 1009.0
20260503184558 73 311 6.1 13.0 0.00 0.00 0.00 30 1008.9
20260503184059 72 43 4.3 11.3 0.00 0.00 0.00 29 1008.8
20260503183556 72 360 6.1 11.3 0.00 0.00 0.00 28 1009.0
20260503183112 72 321 4.3 13.9 0.00 0.00 0.00 31 1008.9
20260503182601 72 337 7.0 15.6 0.00 0.00 0.00 29 1009.0
20260503182057 72 360 4.3 15.6 0.00 0.00 0.00 31 1009.2
20260503181624 72 26 6.1 12.2 0.00 0.00 0.00 30 1009.1
20260503181056 71 17 6.1 13.0 0.00 0.00 0.00 30 1009.1
20260503180554 70 19 2.6 13.0 0.00 0.00 0.00 30 1009.2
20260503180129 70 355 6.1 13.9 0.00 0.00 0.00 29 1009.2
20260503175559 71 17 6.1 13.9 0.00 0.00 0.00 28 1009.1
20260503175056 71 10 6.1 16.5 0.00 0.00 0.00 30 1009.3
20260503174601 71 355 7.0 16.5 0.00 0.00 0.00 30 1009.2